{"data":{"norad_id":46113,"intl_designator":"2020-056B","name":"MEV-2","alt_names":[],"object_type":"PAYLOAD","status":"ACTIVE","operator":null,"country":"US","launch_date":"2020-08-15","launch_site_code":"FRGUI","launch_vehicle":null,"mission":null,"orbit_class":"UNKNOWN","rcs_meters":null,"size_class":null,"mass_kg":null,"dimensions":null,"purposes":["comms"],"wikipedia_slug":null,"has_3d_model":false,"image_url":null,"decayed_at":null,"tle_current":{"epoch":"2026-05-25T03:44:17.294208Z","epoch_age_seconds":54800,"freshness":"FRESH","line1":"1 46113U 20056B   26145.15575572 -.00000013  00000+0  00000+0 0  9996","line2":"2 46113   0.0340  57.9406 0000178 116.9213 122.9759  1.00271497 80323","mean_motion":1.00271497,"eccentricity":1.78e-5,"inclination_deg":0.034,"raan_deg":57.9406,"arg_perigee_deg":116.9213,"mean_anomaly_deg":122.9759,"bstar":0,"rev_number":8032,"period_min":1436.1010287899,"perigee_km":35785.925164573,"apogee_km":35787.426231905,"semimajor_km":42164.812698239,"source":"CELESTRAK","updated_at":"2026-05-25T13:38:14.096062Z"}}}